Regional Weather Roundup
Issued by NWS

Home | Current Version | Previous Version | Graphics & Text | Print | Product List | Glossary On
Versions: 1 2 3 4 5 6 7 8 9 10 11 12 13 14 15 16 17 18 19 20 21 22 23 24 25 26 27 28 29 30 31 32 33 34 35 36 37 38 39 40 41 42 43 44 45 46 47 48 49 50
341
ASUS44 KJAN 230310
RWRMS

MISSISSIPPI HOURLY WEATHER ROUNDUP
NATIONAL WEATHER SERVICE JACKSON MS
900 PM CST SAT NOV 22 2014

NOTE: "FAIR: INDICATES FEW OR NO CLOUDS BELOW 12,000 FEET WITH NO
SIGNIFICANT WEATHER AND/OR OBSTRUCTIONS TO VISIBILITY.

MSZ001>002-007>008-010>013-018>021-025>028-034>036-230400-
NORTHWEST MISSISSIPPI

CITY           SKY/WX    TMP DP  RH WIND       PRES   REMARKS
CLARKSDALE     FAIR      57  50  77 E9        30.01F
CLEVELAND      FAIR      58  50  74 E9        29.97F
GREENWOOD      CLOUDY    58  49  72 E6        30.00F
GREENVILLE     PTCLDY    59  50  72 SE10      29.96F
GRENADA        MOCLDY    55  46  71 CALM      30.03F
OLIVE BRANCH   CLEAR     57  48  72 SE8       30.02F
OXFORD         FAIR      57  46  67 SE6       30.05F
TUNICA         CLOUDY    52  46  82 SE6       30.01F
$$

MSZ003>006-009-014>017-022>024-029>033-037>039-230400-
NORTHEAST MISSISSIPPI

CITY           SKY/WX    TMP DP  RH WIND       PRES   REMARKS
COLUMBUS AFB   MIX PCPN  63  50  63 SE10      30.06F
CORINTH        MOCLDY    54  45  71 SE3       30.06F
GOLDN TRIANGLE CLOUDY    63  50  63 SE12      30.05F
STARKVILLE     CLOUDY    61  52  72 SE8       30.04F
TUPELO         CLOUDY    58  48  69 SE5       30.06F
$$

MSZ040-058-230400-
CENTRAL MISSISSIPPI

CITY           SKY/WX    TMP DP  RH WIND       PRES   REMARKS
JACKSON INTL   CLOUDY    60  53  77 SE9       29.99F
JACKSON HAWKNS CLOUDY    61  52  72 SE12      29.99F
MERIDIAN KEY   CLOUDY    63  55  75 SE15      30.04F
MERIDIAN NAS   CLOUDY    63  54  72 VRB7      30.07F
RAYMOND        FAIR      59  55  88 E10       29.97F
VICKSBURG      PTCLDY    60  52  74 SE9       29.96F
$$

MSZ059>079-230400-
SOUTH MISSISSIPPI

CITY           SKY/WX    TMP DP  RH WIND       PRES   REMARKS
BROOKHAVEN     FAIR      61  55  82 E8        29.98F
HATTIESBURG    CLOUDY    62  57  83 E8        30.03F
MCCOMB         CLOUDY    61  56  83 SE12      29.96F
NATCHEZ        CLEAR     61  54  77 SE15      29.93F
PINE BELT      MOCLDY    61  54  77 E8        30.04S
$$

MSZ080>082-230400-
COASTAL MISSISSIPPI

CITY           SKY/WX    TMP DP  RH WIND       PRES   REMARKS
BILOXI         CLOUDY    62  60  93 E10       30.01F
PASCAGOULA     CLOUDY    62  59  90 NE8       30.03F
GULFPORT         N/A     62  59  90 E14       30.01F
$$



USA.gov is the U.S. government's official web portal to all federal, state and local government web resources and services.